{"data":{"norad_id":63661,"intl_designator":"2025-083AD","name":"STARLINK-33823","alt_names":[],"object_type":"PAYLOAD","status":"ACTIVE","operator":null,"country":"US","launch_date":"2025-04-25","launch_site_code":"AFETR","launch_vehicle":null,"mission":null,"orbit_class":"UNKNOWN","rcs_meters":null,"size_class":null,"mass_kg":null,"dimensions":null,"purposes":["comms"],"wikipedia_slug":null,"has_3d_model":false,"image_url":null,"decayed_at":null,"tle_current":{"epoch":"2026-05-25T02:43:39.283104Z","epoch_age_seconds":75812,"freshness":"FRESH","line1":"1 63661U 25083AD  26145.11364911  .00013674  00000+0  50553-3 0  9995","line2":"2 63661  42.9996 293.7164 0000622 302.7146  57.3646 15.27578636 61781","mean_motion":15.27578636,"eccentricity":6.22e-5,"inclination_deg":42.9996,"raan_deg":293.7164,"arg_perigee_deg":302.7146,"mean_anomaly_deg":57.3646,"bstar":0.00050553,"rev_number":6178,"period_min":94.266832885977,"perigee_km":482.62641432017,"apogee_km":483.47994637861,"semimajor_km":6861.1901803494,"source":"CELESTRAK","updated_at":"2026-05-25T13:38:20.089413Z"}}}